Location: *
(28.3744°N, 81.5492°W)
Time: 04:13:19
(UTC+00:00)

Cosmos 2173 Rocket - Pass Details

Date: 15 June 2025
Orbit: 943 x 1000 km, 83.0° (Epoch: 11 July)

Event Time Altitude Azimuth Distance (km) Brightness Sun altitude
Rises 02:42:23 0° 359° (N) 3,641 7.7 -24.9°
Reaches altitude 10° 02:44:56 10° 3° (N) 2,685 6.9 -25.3°
Maximum altitude 02:51:00 62° 83° (E) 1,060 3.9 -26.1°
Enters shadow 02:51:21 61° 101° (E) 1,069 3.9 -26.2°
